Lid_Strength_Index
1 -0 -1 -1 -1 -1 -1 -1 -2 -2 -2 -1 -1 -2 -2 -2 -2 -2 -2 -2 -2 -2 -2 -2 -2 -2 -2 -2 -2 -2 -2 -2 -2 -1 -2 -2 -2 -2 -2 -2 -2 -1 -2
0 -0 -1 -1 -1 -1 -1 -1 -2 -2 -2 -1 -2 -2 -2 -2 -2 -2 -2 -2 -2 -2 -2 -2 -2 -2 -2 -2 -2 -2 -1 -1 -2 -2 -1 -2 -2 -2 -2 -2 -2 -1 -2
0 -0 -0 -1 -1 -1 -1 -1 -2 -2 -2 -2 -2 -2 -2 -2 -2 -2 -2 -2 -2 -2 -2 -2 -2 -2 -2 -2 -1 -1 -1 -1 -1 -2 -2 0 -0 -2 -2 -2 -2 -2 -2
0 -0 -0 -1 -1 -1 -1 -2 -2 -2 -2 -2 -2 -2 -2 -2 -2 -2 -2 -2 -2 -2 -2 -2 -2 -2 -2 -1 -1 -1 -1 -1 -2 -1 -0 -0 -1 -2 -2 -2 -2 -2 -2
0 -0 -0 -1 -1 -1 -1 -2 -2 -2 -2 -2 -2 -2 -2 -2 -2 -2 -2 -2 -2 -2 -2 -2 -2 -2 -1 -1 -1 -1 -1 -2 -2 -1 -0 0 0 -1 -2 -2 -2 -2 -2
0 -0 -0 -1 -1 -1 -1 -2 -2 -2 -2 -2 -2 -2 -2 -2 -2 -2 -2 -2 -2 -2 -2 -2 -2 -1 -1 -1 -1 -1 -1 -2 -1 -0 -0 -1 -0 -2 -2 -2 -2 -1 -1
0 -0 -0 -1 -1 -1 -1 -2 -2 -2 -2 -2 -2 -2 -2 -2 -2 -2 -2 -2 -2 -2 -2 -2 -1 -1 -1 -1 -1 -1 -1 -1 -1 0 0 0 -1 -2 -2 -2 -2 -1 -0
1 -0 -0 1 -0 -1 -1 -1 -2 -2 -2 -2 -2 -2 -2 -2 -2 -2 -2 -2 -1 -1 -1 -1 -1 -1 -1 -1 -1 -2 -1 -1 -1 0 0 0 -2 -2 -2 -2 -1 0 0
0 0 -0 -0 0 0 -0 -1 -1 -2 -1 -1 -2 -2 -2 -2 -2 -2 -2 -2 -1 -1 -1 -1 -1 -1 -1 -1 -1 -1 -1 -0 -0 -0 0 0 -2 -2 -2 -1 0 0 1
0 0 0 -0 -0 -0 -0 1 0 -1 -1 -1 -1 -1 -1 -1 -1 -1 -1 -1 -1 -1 -1 -1 -1 -1 -1 -1 -2 -1 -0 -0 0 1 1 0 -2 -2 -2 -1 0 1 1
1 1 0 0 -0 -0 -0 1 1 0 -0 -0 -0 0 0 -1 -0 0 0 -1 -1 -1 -1 -1 -1 -2 -2 -1 -1 -1 -0 -0 1 1 1 -1 -1 -1 -1 -1 0 1 2
2 1 0 0 0 -0 -0 0 0 0 0 -0 -1 -0 -0 -0 0 -0 1 0 -1 -1 -1 -1 -2 -1 0 1 1 -0 1 1 2 2 2 -1 -1 -1 -1 -0 0 1 2
2 1 1 0 0 0 0 0 0 0 0 -0 0 0 0 1 1 1 1 1 1 1 0 -0 -0 1 1 1 1 1 2 3 3 4 2 0 0 -1 -1 -0 1 1 3
2 2 1 0 0 0 0 0 0 1 2 2 1 0 1 2 1 1 1 1 2 0 1 1 3 3 3 2 2 2 3 4 4 4 4 1 0 -1 -1 0 1 2 3
3 2 1 0 0 1 1 0 1 2 2 2 2 1 1 1 1 1 1 1 1 -0 0 3 4 4 3 3 3 3 3 4 4 5 5 3 0 -0 -0 0 1 2 3
2 2 2 1 0 0 1 1 1 2 2 3 2 1 1 1 1 1 1 0 1 0 2 4 4 4 4 4 4 4 4 4 4 6 6 5 2 1 1 1 2 3 4
2 2 2 1 0 1 1 1 1 2 2 3 2 3 3 0 1 1 0 2 2 3 3 4 4 5 6 5 6 6 6 4 5 6 7 8 7 4 3 3 3 4 4
2 2 1 1 1 1 1 1 1 2 2 3 2 2 2 1 1 1 1 2 3 5 4 5 5 6 7 7 8 8 8 7 6 5 7 8 9 9 6 5 5 5 5
2 2 2 1 1 1 1 1 1 2 3 3 2 2 2 1 1 2 1 2 4 4 5 5 6 6 8 9 9 9 9 9 8 8 10 10 10 10 10 7 7 7 7
2 1 1 1 1 1 1 1 1 3 3 3 2 2 2 2 2 3 3 3 3 5 5 6 7 7 8 9 10 10 10 10 10 11 11 11 11 12 12 12 13 12 10
2 2 2 2 1 1 1 2 3 3 3 3 1 2 2 2 3 3 3 4 5 6 6 6 7 9 10 10 11 11 11 11 11 12 12 12 12 13 13 14 15 15 14
3 2 2 2 1 1 1 2 2 3 3 3 1 3 2 3 4 4 5 6 6 7 7 7 8 10 11 10 11 12 14 14 13 12 12 12 13 13 14 14 15 15 16
3 2 2 2 1 1 3 3 3 3 3 3 2 4 3 4 5 4 5 6 7 7 8 7 9 9 12 10 10 10 14 14 14 13 13 13 13 14 14 14 15 16 17
3 2 2 2 1 1 2 3 3 3 4 4 4 5 4 5 6 7 6 7 7 8 8 8 8 8 10 11 10 10 10 11 14 15 14 13 14 14 14 15 17 17 17
3 2 2 2 1 1 2 2 2 3 3 4 5 6 7 8 7 8 8 8 8 8 8 8 9 8 9 10 10 11 11 12 13 14 16 16 14 14 14 15 16 17 17
3 2 2 2 2 1 1 2 2 3 3 5 5 7 8 9 10 9 9 9 9 9 8 8 7 7 8 9 10 12 12 13 14 14 15 16 16 15 15 16 15 16 16